sat.trackr.live / text

‹ back to catalog

STARLINK-2367

NORAD 47907 · 2021-021AZ

PAYLOAD ACTIVE UNKNOWN

§ Identity

Operator
Country
US
Launch date
2021-03-14
Launch site
AFETR
Launch vehicle
Mass (kg)
RCS (m²)

Purposes: comms

External: N2YO · Heavens-Above · Gunter

§ Orbital elements

Epoch: 2026-09-19T22:17:58.515936Z

Period
94.01 min
Inclination
53.1579°
Eccentricity
0.0001350
Mean motion
15.31702369 rev/d
Perigee alt
469.8 km
Apogee alt
471.7 km
Semi-major
6,848.9 km
B*
4.4218e-5
RAAN
97.1691°
Arg perigee
93.1779°
Mean anomaly
266.9377°
Rev number
30,578

§ Raw data

STARLINK-23671 47907U 21021AZ  26262.92914949  .00001007  00000+0  44218-4 0  99982 47907  53.1579  97.1691 0001350  93.1779 266.9377 15.31702369305787

JSON: /api/v1/satellites/47907 · /tle

For live sub-satellite position, see the globe view (requires WebGL).

§ Visibility from observer

Set your observer location to see the next 7 days of passes ≥ 10°. The values pass through the URL so the page stays shareable.

No JS? Fill the form by hand. The geolocation button needs JavaScript.